Year,Month,Day,Hour,Minute,Value (Times are PST for insolation in W/m^2)
2010,04,30,00,00,0.00
2010,04,30,00,01,0.00
2010,04,30,00,02,0.00
2010,04,30,00,03,0.00
2010,04,30,00,04,0.00
2010,04,30,00,05,0.00
2010,04,30,00,06,0.00
2010,04,30,00,07,0.00
2010,04,30,00,08,0.00
2010,04,30,00,09,0.00
2010,04,30,00,10,0.00
2010,04,30,00,11,0.00
2010,04,30,00,12,0.00
2010,04,30,00,13,0.00
2010,04,30,00,14,0.00
2010,04,30,00,15,0.00
2010,04,30,00,16,0.00
2010,04,30,00,17,0.00
2010,04,30,00,18,0.00
2010,04,30,00,19,0.00
2010,04,30,00,20,0.00
2010,04,30,00,21,0.00
2010,04,30,00,22,0.00
2010,04,30,00,23,0.00
2010,04,30,00,24,0.00
2010,04,30,00,25,0.00
2010,04,30,00,26,0.00
2010,04,30,00,27,0.00
2010,04,30,00,28,0.00
2010,04,30,00,29,0.00
2010,04,30,00,30,0.00
2010,04,30,00,31,0.00
2010,04,30,00,32,0.00
2010,04,30,00,33,0.00
2010,04,30,00,34,0.00
2010,04,30,00,35,0.00
2010,04,30,00,36,0.00
2010,04,30,00,37,0.00
2010,04,30,00,38,0.00
2010,04,30,00,39,0.00
2010,04,30,00,40,0.00
2010,04,30,00,41,0.00
2010,04,30,00,42,0.00
2010,04,30,00,43,0.00
2010,04,30,00,44,0.00
2010,04,30,00,45,0.00
2010,04,30,00,46,0.00
2010,04,30,00,47,0.00
2010,04,30,00,48,0.00
2010,04,30,00,49,0.00
2010,04,30,00,50,0.00
2010,04,30,00,51,0.00
2010,04,30,00,52,0.00
2010,04,30,00,53,0.00
2010,04,30,00,54,0.00
2010,04,30,00,55,0.00
2010,04,30,00,56,0.00
2010,04,30,00,57,0.00
2010,04,30,00,58,0.00
2010,04,30,00,59,0.00
2010,04,30,01,00,0.00
2010,04,30,01,01,0.00
2010,04,30,01,02,0.00
2010,04,30,01,03,0.00
2010,04,30,01,04,0.00
2010,04,30,01,05,0.00
2010,04,30,01,06,0.00
2010,04,30,01,07,0.00
2010,04,30,01,08,0.00
2010,04,30,01,09,0.00
2010,04,30,01,10,0.00
2010,04,30,01,11,0.00
2010,04,30,01,12,0.00
2010,04,30,01,13,0.00
2010,04,30,01,14,0.00
2010,04,30,01,15,0.00
2010,04,30,01,16,0.00
2010,04,30,01,17,0.00
2010,04,30,01,18,0.00
2010,04,30,01,19,0.00
2010,04,30,01,20,0.00
2010,04,30,01,21,0.00
2010,04,30,01,22,0.00
2010,04,30,01,23,0.00
2010,04,30,01,24,0.00
2010,04,30,01,25,0.00
2010,04,30,01,26,0.00
2010,04,30,01,27,0.00
2010,04,30,01,28,0.00
2010,04,30,01,29,0.00
2010,04,30,01,30,0.00
2010,04,30,01,31,0.00
2010,04,30,01,32,0.00
2010,04,30,01,33,0.00
2010,04,30,01,34,0.00
2010,04,30,01,35,0.00
2010,04,30,01,36,0.00
2010,04,30,01,37,0.00
2010,04,30,01,38,0.00
2010,04,30,01,39,0.00
2010,04,30,01,40,0.00
2010,04,30,01,41,0.00
2010,04,30,01,42,0.00
2010,04,30,01,43,0.00
2010,04,30,01,44,0.00
2010,04,30,01,45,0.00
2010,04,30,01,46,0.00
2010,04,30,01,47,0.00
2010,04,30,01,48,0.00
2010,04,30,01,49,0.00
2010,04,30,01,50,0.00
2010,04,30,01,51,0.00
2010,04,30,01,52,0.00
2010,04,30,01,53,0.00
2010,04,30,01,54,0.00
2010,04,30,01,55,0.00
2010,04,30,01,56,0.00
2010,04,30,01,57,0.00
2010,04,30,01,58,0.00
2010,04,30,01,59,0.00
2010,04,30,02,00,0.00
2010,04,30,02,01,0.00
2010,04,30,02,02,0.00
2010,04,30,02,03,0.00
2010,04,30,02,04,0.00
2010,04,30,02,05,0.00
2010,04,30,02,06,0.00
2010,04,30,02,07,0.00
2010,04,30,02,08,0.00
2010,04,30,02,09,0.00
2010,04,30,02,10,0.00
2010,04,30,02,11,0.00
2010,04,30,02,12,0.00
2010,04,30,02,13,0.00
2010,04,30,02,14,0.00
2010,04,30,02,15,0.00
2010,04,30,02,16,0.00
2010,04,30,02,17,0.00
2010,04,30,02,18,0.00
2010,04,30,02,19,0.00
2010,04,30,02,20,0.00
2010,04,30,02,21,0.00
2010,04,30,02,22,0.00
2010,04,30,02,23,0.00
2010,04,30,02,24,0.00
2010,04,30,02,25,0.00
2010,04,30,02,26,0.00
2010,04,30,02,27,0.00
2010,04,30,02,28,0.00
2010,04,30,02,29,0.00
2010,04,30,02,30,0.00
2010,04,30,02,31,0.00
2010,04,30,02,32,0.00
2010,04,30,02,33,0.00
2010,04,30,02,34,0.00
2010,04,30,02,35,0.00
2010,04,30,02,36,0.00
2010,04,30,02,37,0.00
2010,04,30,02,38,0.00
2010,04,30,02,39,0.00
2010,04,30,02,40,0.00
2010,04,30,02,41,0.00
2010,04,30,02,42,0.00
2010,04,30,02,43,0.00
2010,04,30,02,44,0.00
2010,04,30,02,45,0.00
2010,04,30,02,46,0.00
2010,04,30,02,47,0.00
2010,04,30,02,48,0.00
2010,04,30,02,49,0.00
2010,04,30,02,50,0.00
2010,04,30,02,51,0.00
2010,04,30,02,52,0.00
2010,04,30,02,53,0.00
2010,04,30,02,54,0.00
2010,04,30,02,55,0.00
2010,04,30,02,56,0.00
2010,04,30,02,57,0.00
2010,04,30,02,58,0.00
2010,04,30,02,59,0.00
2010,04,30,03,00,0.00
2010,04,30,03,01,0.00
2010,04,30,03,02,0.00
2010,04,30,03,03,0.00
2010,04,30,03,04,0.00
2010,04,30,03,05,0.00
2010,04,30,03,06,0.00
2010,04,30,03,07,0.00
2010,04,30,03,08,0.00
2010,04,30,03,09,0.00
2010,04,30,03,10,0.00
2010,04,30,03,11,0.00
2010,04,30,03,12,0.00
2010,04,30,03,13,0.00
2010,04,30,03,14,0.00
2010,04,30,03,15,0.00
2010,04,30,03,16,0.00
2010,04,30,03,17,0.00
2010,04,30,03,18,0.00
2010,04,30,03,19,0.00
2010,04,30,03,20,0.00
2010,04,30,03,21,0.00
2010,04,30,03,22,0.00
2010,04,30,03,23,0.00
2010,04,30,03,24,0.00
2010,04,30,03,25,0.00
2010,04,30,03,26,0.00
2010,04,30,03,27,0.00
2010,04,30,03,28,0.00
2010,04,30,03,29,0.00
2010,04,30,03,30,0.00
2010,04,30,03,31,0.00
2010,04,30,03,32,0.00
2010,04,30,03,33,0.00
2010,04,30,03,34,0.00
2010,04,30,03,35,0.00
2010,04,30,03,36,0.00
2010,04,30,03,37,0.00
2010,04,30,03,38,0.00
2010,04,30,03,39,0.00
2010,04,30,03,40,0.00
2010,04,30,03,41,0.00
2010,04,30,03,42,0.00
2010,04,30,03,43,0.00
2010,04,30,03,44,0.00
2010,04,30,03,45,0.00
2010,04,30,03,46,0.00
2010,04,30,03,47,0.00
2010,04,30,03,48,0.00
2010,04,30,03,49,0.00
2010,04,30,03,50,0.00
2010,04,30,03,51,0.00
2010,04,30,03,52,0.00
2010,04,30,03,53,0.00
2010,04,30,03,54,0.00
2010,04,30,03,55,0.00
2010,04,30,03,56,0.00
2010,04,30,03,57,0.00
2010,04,30,03,58,0.00
2010,04,30,03,59,0.00
2010,04,30,04,00,0.00
2010,04,30,04,01,0.00
2010,04,30,04,02,0.00
2010,04,30,04,03,0.00
2010,04,30,04,04,0.00
2010,04,30,04,05,0.00
2010,04,30,04,06,0.00
2010,04,30,04,07,0.00
2010,04,30,04,08,0.00
2010,04,30,04,09,0.00
2010,04,30,04,10,0.00
2010,04,30,04,11,0.00
2010,04,30,04,12,0.00
2010,04,30,04,13,0.00
2010,04,30,04,14,0.00
2010,04,30,04,15,0.00
2010,04,30,04,16,0.00
2010,04,30,04,17,0.00
2010,04,30,04,18,0.00
2010,04,30,04,19,0.00
2010,04,30,04,20,0.00
2010,04,30,04,21,0.00
2010,04,30,04,22,0.00
2010,04,30,04,23,0.00
2010,04,30,04,24,0.00
2010,04,30,04,25,0.00
2010,04,30,04,26,0.00
2010,04,30,04,27,0.00
2010,04,30,04,28,0.00
2010,04,30,04,29,0.00
2010,04,30,04,30,0.00
2010,04,30,04,31,0.00
2010,04,30,04,32,0.00
2010,04,30,04,33,0.00
2010,04,30,04,34,0.00
2010,04,30,04,35,0.00
2010,04,30,04,36,0.00
2010,04,30,04,37,0.00
2010,04,30,04,38,0.00
2010,04,30,04,39,0.00
2010,04,30,04,40,0.00
2010,04,30,04,41,0.00
2010,04,30,04,42,0.00
2010,04,30,04,43,0.00
2010,04,30,04,44,0.00
2010,04,30,04,45,0.00
2010,04,30,04,46,0.00
2010,04,30,04,47,0.00
2010,04,30,04,48,0.00
2010,04,30,04,49,0.00
2010,04,30,04,50,0.00
2010,04,30,04,51,0.00
2010,04,30,04,52,0.00
2010,04,30,04,53,0.00
2010,04,30,04,54,0.00
2010,04,30,04,55,0.00
2010,04,30,04,56,0.00
2010,04,30,04,57,0.00
2010,04,30,04,58,0.00
2010,04,30,04,59,0.00
2010,04,30,05,00,0.00
2010,04,30,05,01,0.00
2010,04,30,05,02,0.00
2010,04,30,05,03,0.00
2010,04,30,05,04,0.00
2010,04,30,05,05,0.00
2010,04,30,05,06,0.00
2010,04,30,05,07,0.00
2010,04,30,05,08,0.00
2010,04,30,05,09,0.00
2010,04,30,05,10,0.00
2010,04,30,05,11,0.00
2010,04,30,05,12,0.00
2010,04,30,05,13,0.00
2010,04,30,05,14,0.00
2010,04,30,05,15,0.00
2010,04,30,05,16,0.00
2010,04,30,05,17,0.00
2010,04,30,05,18,0.00
2010,04,30,05,19,0.00
2010,04,30,05,20,0.00
2010,04,30,05,21,0.00
2010,04,30,05,22,0.00
2010,04,30,05,23,0.00
2010,04,30,05,24,0.00
2010,04,30,05,25,0.00
2010,04,30,05,26,0.00
2010,04,30,05,27,0.00
2010,04,30,05,28,0.00
2010,04,30,05,29,0.00
2010,04,30,05,30,0.00
2010,04,30,05,31,0.00
2010,04,30,05,32,0.00
2010,04,30,05,33,0.00
2010,04,30,05,34,0.00
2010,04,30,05,35,0.00
2010,04,30,05,36,0.00
2010,04,30,05,37,0.00
2010,04,30,05,38,0.00
2010,04,30,05,39,0.00
2010,04,30,05,40,0.00
2010,04,30,05,41,0.00
2010,04,30,05,42,0.00
2010,04,30,05,43,0.00
2010,04,30,05,44,0.00
2010,04,30,05,45,0.00
2010,04,30,05,46,0.00
2010,04,30,05,47,0.00
2010,04,30,05,48,0.00
2010,04,30,05,49,0.00
2010,04,30,05,50,0.00
2010,04,30,05,51,0.00
2010,04,30,05,52,0.00
2010,04,30,05,53,0.00
2010,04,30,05,54,0.00
2010,04,30,05,55,0.00
2010,04,30,05,56,1.00
2010,04,30,05,57,5.00
2010,04,30,05,58,5.00
2010,04,30,05,59,5.00
2010,04,30,06,00,5.00
2010,04,30,06,01,5.00
2010,04,30,06,02,6.60
2010,04,30,06,03,7.00
2010,04,30,06,04,7.00
2010,04,30,06,05,7.40
2010,04,30,06,06,9.00
2010,04,30,06,07,9.80
2010,04,30,06,08,11.00
2010,04,30,06,09,11.00
2010,04,30,06,10,11.00
2010,04,30,06,11,11.90
2010,04,30,06,12,12.00
2010,04,30,06,13,12.00
2010,04,30,06,14,12.50
2010,04,30,06,15,14.00
2010,04,30,06,16,14.00
2010,04,30,06,17,14.00
2010,04,30,06,18,14.00
2010,04,30,06,19,15.50
2010,04,30,06,20,16.00
2010,04,30,06,21,16.10
2010,04,30,06,22,18.00
2010,04,30,06,23,18.00
2010,04,30,06,24,18.00
2010,04,30,06,25,18.50
2010,04,30,06,26,19.00
2010,04,30,06,27,19.00
2010,04,30,06,28,19.00
2010,04,30,06,29,20.80
2010,04,30,06,30,21.00
2010,04,30,06,31,21.40
2010,04,30,06,32,23.00
2010,04,30,06,33,23.00
2010,04,30,06,34,24.00
2010,04,30,06,35,25.00
2010,04,30,06,36,25.00
2010,04,30,06,37,25.00
2010,04,30,06,38,26.00
2010,04,30,06,39,26.00
2010,04,30,06,40,26.00
2010,04,30,06,41,26.00
2010,04,30,06,42,26.00
2010,04,30,06,43,26.00
2010,04,30,06,44,26.00
2010,04,30,06,45,26.00
2010,04,30,06,46,27.70
2010,04,30,06,47,28.00
2010,04,30,06,48,28.00
2010,04,30,06,49,28.00
2010,04,30,06,50,28.00
2010,04,30,06,51,28.00
2010,04,30,06,52,28.00
2010,04,30,06,53,28.00
2010,04,30,06,54,28.00
2010,04,30,06,55,28.10
2010,04,30,06,56,30.00
2010,04,30,06,57,29.50
2010,04,30,06,58,28.60
2010,04,30,06,59,32.40
2010,04,30,07,00,32.10
2010,04,30,07,01,30.00
2010,04,30,07,02,30.00
2010,04,30,07,03,30.00
2010,04,30,07,04,30.00
2010,04,30,07,05,30.00
2010,04,30,07,06,30.00
2010,04,30,07,07,30.70
2010,04,30,07,08,32.00
2010,04,30,07,09,32.60
2010,04,30,07,10,33.00
2010,04,30,07,11,33.00
2010,04,30,07,12,34.90
2010,04,30,07,13,44.20
2010,04,30,07,14,66.00
2010,04,30,07,15,60.70
2010,04,30,07,16,40.80
2010,04,30,07,17,38.10
2010,04,30,07,18,39.00
2010,04,30,07,19,39.80
2010,04,30,07,20,41.70
2010,04,30,07,21,43.80
2010,04,30,07,22,41.70
2010,04,30,07,23,40.00
2010,04,30,07,24,40.70
2010,04,30,07,25,42.00
2010,04,30,07,26,43.10
2010,04,30,07,27,47.60
2010,04,30,07,28,63.60
2010,04,30,07,29,86.60
2010,04,30,07,30,88.20
2010,04,30,07,31,136.90
2010,04,30,07,32,191.60
2010,04,30,07,33,243.50
2010,04,30,07,34,265.20
2010,04,30,07,35,272.80
2010,04,30,07,36,275.50
2010,04,30,07,37,277.60
2010,04,30,07,38,282.80
2010,04,30,07,39,287.00
2010,04,30,07,40,287.00
2010,04,30,07,41,291.80
2010,04,30,07,42,305.30
2010,04,30,07,43,312.40
2010,04,30,07,44,318.30
2010,04,30,07,45,310.70
2010,04,30,07,46,327.90
2010,04,30,07,47,330.50
2010,04,30,07,48,339.40
2010,04,30,07,49,336.00
2010,04,30,07,50,348.90
2010,04,30,07,51,350.60
2010,04,30,07,52,348.00
2010,04,30,07,53,210.90
2010,04,30,07,54,173.20
2010,04,30,07,55,207.50
2010,04,30,07,56,255.00
2010,04,30,07,57,255.00
2010,04,30,07,58,281.30
2010,04,30,07,59,296.30
2010,04,30,08,00,281.50
2010,04,30,08,01,334.50
2010,04,30,08,02,326.20
2010,04,30,08,03,309.70
2010,04,30,08,04,347.30
2010,04,30,08,05,340.70
2010,04,30,08,06,339.50
2010,04,30,08,07,341.00
2010,04,30,08,08,342.90
2010,04,30,08,09,345.00
2010,04,30,08,10,346.90
2010,04,30,08,11,351.30
2010,04,30,08,12,352.90
2010,04,30,08,13,359.30
2010,04,30,08,14,362.40
2010,04,30,08,15,364.90
2010,04,30,08,16,370.00
2010,04,30,08,17,377.10
2010,04,30,08,18,383.20
2010,04,30,08,19,387.30
2010,04,30,08,20,393.10
2010,04,30,08,21,406.80
2010,04,30,08,22,403.20
2010,04,30,08,23,381.40
2010,04,30,08,24,408.80
2010,04,30,08,25,367.70
2010,04,30,08,26,318.00
2010,04,30,08,27,387.10
2010,04,30,08,28,426.30
2010,04,30,08,29,397.10
2010,04,30,08,30,361.30
2010,04,30,08,31,334.00
2010,04,30,08,32,334.00
2010,04,30,08,33,383.10
2010,04,30,08,34,470.00
2010,04,30,08,35,456.20
2010,04,30,08,36,472.90
2010,04,30,08,37,501.80
2010,04,30,08,38,525.00
2010,04,30,08,39,453.90
2010,04,30,08,40,373.00
2010,04,30,08,41,373.00
2010,04,30,08,42,338.50
2010,04,30,08,43,327.50
2010,04,30,08,44,391.00
2010,04,30,08,45,410.00
2010,04,30,08,46,290.50
2010,04,30,08,47,264.00
2010,04,30,08,48,240.70
2010,04,30,08,49,226.00
2010,04,30,08,50,222.30
2010,04,30,08,51,221.00
2010,04,30,08,52,223.30
2010,04,30,08,53,230.00
2010,04,30,08,54,235.10
2010,04,30,08,55,236.90
2010,04,30,08,56,235.50
2010,04,30,08,57,229.80
2010,04,30,08,58,227.20
2010,04,30,08,59,218.70
2010,04,30,09,00,213.50
2010,04,30,09,01,221.00
2010,04,30,09,02,239.50
2010,04,30,09,03,261.00
2010,04,30,09,04,284.90
2010,04,30,09,05,304.70
2010,04,30,09,06,332.70
2010,04,30,09,07,394.10
2010,04,30,09,08,402.10
2010,04,30,09,09,391.00
2010,04,30,09,10,351.40
2010,04,30,09,11,301.10
2010,04,30,09,12,324.10
2010,04,30,09,13,282.20
2010,04,30,09,14,262.10
2010,04,30,09,15,265.10
2010,04,30,09,16,248.80
2010,04,30,09,17,250.00
2010,04,30,09,18,248.80
2010,04,30,09,19,246.60
2010,04,30,09,20,244.30
2010,04,30,09,21,245.90
2010,04,30,09,22,251.50
2010,04,30,09,23,258.60
2010,04,30,09,24,265.00
2010,04,30,09,25,267.00
2010,04,30,09,26,269.60
2010,04,30,09,27,276.70
2010,04,30,09,28,294.20
2010,04,30,09,29,287.40
2010,04,30,09,30,274.00
2010,04,30,09,31,260.40
2010,04,30,09,32,247.70
2010,04,30,09,33,239.50
2010,04,30,09,34,238.00
2010,04,30,09,35,241.30
2010,04,30,09,36,251.20
2010,04,30,09,37,266.30
2010,04,30,09,38,279.40
2010,04,30,09,39,291.70
2010,04,30,09,40,308.00
2010,04,30,09,41,308.00
2010,04,30,09,42,312.10
2010,04,30,09,43,322.50
2010,04,30,09,44,324.50
2010,04,30,09,45,311.20
2010,04,30,09,46,289.70
2010,04,30,09,47,268.80
2010,04,30,09,48,249.10
2010,04,30,09,49,234.70
2010,04,30,09,50,223.50
2010,04,30,09,51,211.70
2010,04,30,09,52,199.70
2010,04,30,09,53,188.30
2010,04,30,09,54,182.00
2010,04,30,09,55,190.50
2010,04,30,09,56,219.70
2010,04,30,09,57,332.30
2010,04,30,09,58,833.00
2010,04,30,09,59,833.00
2010,04,30,10,00,837.30
2010,04,30,10,01,842.00
2010,04,30,10,02,499.00
2010,04,30,10,03,317.10
2010,04,30,10,04,289.10
2010,04,30,10,05,270.70
2010,04,30,10,06,256.20
2010,04,30,10,07,248.70
2010,04,30,10,08,248.10
2010,04,30,10,09,254.30
2010,04,30,10,10,266.30
2010,04,30,10,11,279.70
2010,04,30,10,12,292.10
2010,04,30,10,13,301.40
2010,04,30,10,14,316.00
2010,04,30,10,15,343.10
2010,04,30,10,16,388.70
2010,04,30,10,17,328.90
2010,04,30,10,18,325.90
2010,04,30,10,19,343.30
2010,04,30,10,20,355.70
2010,04,30,10,21,357.00
2010,04,30,10,22,404.30
2010,04,30,10,23,877.00
2010,04,30,10,24,841.50
2010,04,30,10,25,747.00
2010,04,30,10,26,624.00
2010,04,30,10,27,464.40
2010,04,30,10,28,409.10
2010,04,30,10,29,401.70
2010,04,30,10,30,414.50
2010,04,30,10,31,415.00
2010,04,30,10,32,415.00
2010,04,30,10,33,396.50
2010,04,30,10,34,392.70
2010,04,30,10,35,439.00
2010,04,30,10,36,439.00
2010,04,30,10,37,865.50
2010,04,30,10,38,984.70
2010,04,30,10,39,990.20
2010,04,30,10,40,979.10
2010,04,30,10,41,974.90
2010,04,30,10,42,981.50
2010,04,30,10,43,974.30
2010,04,30,10,44,984.60
2010,04,30,10,45,988.00
2010,04,30,10,46,988.00
2010,04,30,10,47,988.00
2010,04,30,10,48,898.30
2010,04,30,10,49,337.30
2010,04,30,10,50,336.90
2010,04,30,10,51,261.60
2010,04,30,10,52,236.00
2010,04,30,10,53,236.00
2010,04,30,10,54,666.50
2010,04,30,10,55,824.70
2010,04,30,10,56,824.00
2010,04,30,10,57,823.30
2010,04,30,10,58,820.00
2010,04,30,10,59,822.30
2010,04,30,11,00,815.00
2010,04,30,11,01,761.70
2010,04,30,11,02,755.60
2010,04,30,11,03,832.00
2010,04,30,11,04,860.90
2010,04,30,11,05,865.50
2010,04,30,11,06,856.50
2010,04,30,11,07,881.00
2010,04,30,11,08,881.00
2010,04,30,11,09,876.50
2010,04,30,11,10,862.30
2010,04,30,11,11,861.10
2010,04,30,11,12,870.40
2010,04,30,11,13,874.70
2010,04,30,11,14,875.00
2010,04,30,11,15,875.00
2010,04,30,11,16,875.00
2010,04,30,11,17,907.20
2010,04,30,11,18,949.00
2010,04,30,11,19,563.70
2010,04,30,11,20,371.00
2010,04,30,11,21,885.70
2010,04,30,11,22,967.00
2010,04,30,11,23,967.00
2010,04,30,11,24,771.00
2010,04,30,11,25,301.70
2010,04,30,11,26,338.00
2010,04,30,11,27,360.50
2010,04,30,11,28,354.90
2010,04,30,11,29,340.30
2010,04,30,11,30,329.90
2010,04,30,11,31,324.20
2010,04,30,11,32,360.90
2010,04,30,11,33,418.00
2010,04,30,11,34,418.00
2010,04,30,11,35,385.10
2010,04,30,11,36,374.10
2010,04,30,11,37,371.10
2010,04,30,11,38,382.50
2010,04,30,11,39,419.80
2010,04,30,11,40,346.10
2010,04,30,11,41,323.00
2010,04,30,11,42,566.60
2010,04,30,11,43,993.00
2010,04,30,11,44,993.00
2010,04,30,11,45,937.80
2010,04,30,11,46,893.50
2010,04,30,11,47,874.10
2010,04,30,11,48,859.40
2010,04,30,11,49,851.90
2010,04,30,11,50,846.70
2010,04,30,11,51,845.20
2010,04,30,11,52,845.00
2010,04,30,11,53,846.60
2010,04,30,11,54,848.50
2010,04,30,11,55,853.10
2010,04,30,11,56,857.60
2010,04,30,11,57,865.70
2010,04,30,11,58,871.10
2010,04,30,11,59,875.00
2010,04,30,12,00,879.30
2010,04,30,12,01,884.00
2010,04,30,12,02,889.90
2010,04,30,12,03,901.90
2010,04,30,12,04,910.90
2010,04,30,12,05,931.70
2010,04,30,12,06,947.70
2010,04,30,12,07,955.40
2010,04,30,12,08,954.00
2010,04,30,12,09,954.00
2010,04,30,12,10,954.00
2010,04,30,12,11,954.00
2010,04,30,12,12,954.00
2010,04,30,12,13,954.00
2010,04,30,12,14,860.60
2010,04,30,12,15,269.00
2010,04,30,12,16,269.00
2010,04,30,12,17,550.10
2010,04,30,12,18,922.90
2010,04,30,12,19,910.20
2010,04,30,12,20,909.10
2010,04,30,12,21,906.00
2010,04,30,12,22,895.00
2010,04,30,12,23,881.30
2010,04,30,12,24,861.90
2010,04,30,12,25,866.30
2010,04,30,12,26,846.50
2010,04,30,12,27,825.60
2010,04,30,12,28,849.20
2010,04,30,12,29,898.10
2010,04,30,12,30,927.30
2010,04,30,12,31,915.80
2010,04,30,12,32,914.40
2010,04,30,12,33,920.90
2010,04,30,12,34,940.60
2010,04,30,12,35,953.50
2010,04,30,12,36,956.40
2010,04,30,12,37,897.60
2010,04,30,12,38,899.50
2010,04,30,12,39,935.90
2010,04,30,12,40,937.70
2010,04,30,12,41,929.90
2010,04,30,12,42,891.00
2010,04,30,12,43,891.00
2010,04,30,12,44,891.00
2010,04,30,12,45,891.00
2010,04,30,12,46,891.00
2010,04,30,12,47,891.00
2010,04,30,12,48,790.80
2010,04,30,12,49,825.10
2010,04,30,12,50,836.50
2010,04,30,12,51,859.80
2010,04,30,12,52,876.70
2010,04,30,12,53,862.10
2010,04,30,12,54,853.10
2010,04,30,12,55,859.10
2010,04,30,12,56,827.30
2010,04,30,12,57,841.20
2010,04,30,12,58,851.70
2010,04,30,12,59,855.00
2010,04,30,13,00,872.00
2010,04,30,13,01,872.00
2010,04,30,13,02,879.60
2010,04,30,13,03,892.50
2010,04,30,13,04,893.30
2010,04,30,13,05,894.90
2010,04,30,13,06,893.80
2010,04,30,13,07,882.30
2010,04,30,13,08,865.10
2010,04,30,13,09,854.00
2010,04,30,13,10,852.20
2010,04,30,13,11,838.70
2010,04,30,13,12,833.00
2010,04,30,13,13,837.50
2010,04,30,13,14,853.30
2010,04,30,13,15,853.70
2010,04,30,13,16,848.40
2010,04,30,13,17,854.90
2010,04,30,13,18,843.50
2010,04,30,13,19,840.00
2010,04,30,13,20,841.40
2010,04,30,13,21,842.00
2010,04,30,13,22,862.90
2010,04,30,13,23,884.70
2010,04,30,13,24,864.10
2010,04,30,13,25,866.20
2010,04,30,13,26,851.60
2010,04,30,13,27,829.80
2010,04,30,13,28,814.50
2010,04,30,13,29,800.30
2010,04,30,13,30,792.00
2010,04,30,13,31,793.50
2010,04,30,13,32,800.50
2010,04,30,13,33,777.10
2010,04,30,13,34,765.50
2010,04,30,13,35,749.50
2010,04,30,13,36,754.50
2010,04,30,13,37,771.20
2010,04,30,13,38,767.60
2010,04,30,13,39,774.20
2010,04,30,13,40,774.00
2010,04,30,13,41,783.10
2010,04,30,13,42,782.90
2010,04,30,13,43,773.10
2010,04,30,13,44,754.10
2010,04,30,13,45,753.50
2010,04,30,13,46,741.10
2010,04,30,13,47,730.40
2010,04,30,13,48,709.00
2010,04,30,13,49,668.30
2010,04,30,13,50,673.70
2010,04,30,13,51,682.20
2010,04,30,13,52,680.40
2010,04,30,13,53,676.00
2010,04,30,13,54,666.40
2010,04,30,13,55,664.00
2010,04,30,13,56,631.30
2010,04,30,13,57,629.60
2010,04,30,13,58,638.00
2010,04,30,13,59,631.40
2010,04,30,14,00,602.10
2010,04,30,14,01,617.40
2010,04,30,14,02,624.70
2010,04,30,14,03,600.70
2010,04,30,14,04,591.20
2010,04,30,14,05,599.50
2010,04,30,14,06,586.60
2010,04,30,14,07,580.90
2010,04,30,14,08,574.30
2010,04,30,14,09,583.20
2010,04,30,14,10,572.10
2010,04,30,14,11,570.50
2010,04,30,14,12,564.20
2010,04,30,14,13,549.90
2010,04,30,14,14,542.50
2010,04,30,14,15,514.50
2010,04,30,14,16,511.40
2010,04,30,14,17,507.70
2010,04,30,14,18,506.90
2010,04,30,14,19,508.80
2010,04,30,14,20,504.40
2010,04,30,14,21,492.80
2010,04,30,14,22,485.50
2010,04,30,14,23,481.60
2010,04,30,14,24,467.10
2010,04,30,14,25,461.80
2010,04,30,14,26,454.10
2010,04,30,14,27,447.30
2010,04,30,14,28,464.10
2010,04,30,14,29,537.50
2010,04,30,14,30,593.30
2010,04,30,14,31,597.40
2010,04,30,14,32,613.70
2010,04,30,14,33,562.40
2010,04,30,14,34,531.50
2010,04,30,14,35,511.70
2010,04,30,14,36,532.80
2010,04,30,14,37,562.30
2010,04,30,14,38,611.70
2010,04,30,14,39,599.40
2010,04,30,14,40,582.30
2010,04,30,14,41,557.10
2010,04,30,14,42,576.90
2010,04,30,14,43,612.30
2010,04,30,14,44,632.50
2010,04,30,14,45,648.10
2010,04,30,14,46,712.40
2010,04,30,14,47,709.30
2010,04,30,14,48,667.30
2010,04,30,14,49,758.10
2010,04,30,14,50,756.70
2010,04,30,14,51,737.20
2010,04,30,14,52,677.70
2010,04,30,14,53,640.60
2010,04,30,14,54,668.30
2010,04,30,14,55,651.70
2010,04,30,14,56,698.10
2010,04,30,14,57,664.00
2010,04,30,14,58,734.00
2010,04,30,14,59,706.50
2010,04,30,15,00,714.70
2010,04,30,15,01,684.50
2010,04,30,15,02,666.20
2010,04,30,15,03,618.30
2010,04,30,15,04,621.80
2010,04,30,15,05,622.40
2010,04,30,15,06,680.10
2010,04,30,15,07,712.10
2010,04,30,15,08,781.00
2010,04,30,15,09,767.70
2010,04,30,15,10,762.70
2010,04,30,15,11,756.00
2010,04,30,15,12,763.30
2010,04,30,15,13,735.80
2010,04,30,15,14,678.80
2010,04,30,15,15,707.50
2010,04,30,15,16,739.10
2010,04,30,15,17,752.20
2010,04,30,15,18,728.00
2010,04,30,15,19,640.40
2010,04,30,15,20,531.40
2010,04,30,15,21,505.00
2010,04,30,15,22,487.30
2010,04,30,15,23,480.50
2010,04,30,15,24,479.50
2010,04,30,15,25,441.60
2010,04,30,15,26,425.30
2010,04,30,15,27,445.60
2010,04,30,15,28,413.60
2010,04,30,15,29,372.20
2010,04,30,15,30,346.00
2010,04,30,15,31,329.30
2010,04,30,15,32,321.20
2010,04,30,15,33,315.80
2010,04,30,15,34,315.30
2010,04,30,15,35,312.40
2010,04,30,15,36,302.90
2010,04,30,15,37,302.40
2010,04,30,15,38,311.00
2010,04,30,15,39,320.80
2010,04,30,15,40,331.60
2010,04,30,15,41,332.80
2010,04,30,15,42,324.50
2010,04,30,15,43,315.30
2010,04,30,15,44,306.20
2010,04,30,15,45,295.70
2010,04,30,15,46,287.20
2010,04,30,15,47,280.10
2010,04,30,15,48,274.50
2010,04,30,15,49,271.70
2010,04,30,15,50,268.60
2010,04,30,15,51,266.40
2010,04,30,15,52,264.50
2010,04,30,15,53,261.80
2010,04,30,15,54,260.00
2010,04,30,15,55,257.70
2010,04,30,15,56,251.80
2010,04,30,15,57,246.10
2010,04,30,15,58,243.60
2010,04,30,15,59,240.10
2010,04,30,16,00,236.00
2010,04,30,16,01,232.10
2010,04,30,16,02,229.40
2010,04,30,16,03,229.00
2010,04,30,16,04,227.40
2010,04,30,16,05,225.30
2010,04,30,16,06,220.90
2010,04,30,16,07,219.60
2010,04,30,16,08,217.50
2010,04,30,16,09,216.00
2010,04,30,16,10,217.00
2010,04,30,16,11,218.00
2010,04,30,16,12,219.50
2010,04,30,16,13,222.60
2010,04,30,16,14,226.90
2010,04,30,16,15,233.00
2010,04,30,16,16,241.60
2010,04,30,16,17,250.00
2010,04,30,16,18,250.00
2010,04,30,16,19,248.90
2010,04,30,16,20,246.60
2010,04,30,16,21,240.60
2010,04,30,16,22,233.00
2010,04,30,16,23,226.80
2010,04,30,16,24,223.30
2010,04,30,16,25,228.00
2010,04,30,16,26,238.70
2010,04,30,16,27,246.30
2010,04,30,16,28,251.80
2010,04,30,16,29,254.50
2010,04,30,16,30,255.00
2010,04,30,16,31,250.50
2010,04,30,16,32,243.50
2010,04,30,16,33,238.30
2010,04,30,16,34,233.00
2010,04,30,16,35,223.10
2010,04,30,16,36,215.30
2010,04,30,16,37,213.60
2010,04,30,16,38,219.30
2010,04,30,16,39,226.20
2010,04,30,16,40,229.70
2010,04,30,16,41,225.70
2010,04,30,16,42,216.20
2010,04,30,16,43,209.50
2010,04,30,16,44,204.60
2010,04,30,16,45,199.20
2010,04,30,16,46,194.30
2010,04,30,16,47,192.20
2010,04,30,16,48,186.50
2010,04,30,16,49,184.80
2010,04,30,16,50,182.20
2010,04,30,16,51,178.10
2010,04,30,16,52,172.30
2010,04,30,16,53,162.50
2010,04,30,16,54,154.80
2010,04,30,16,55,150.10
2010,04,30,16,56,152.40
2010,04,30,16,57,157.50
2010,04,30,16,58,164.00
2010,04,30,16,59,173.40
2010,04,30,17,00,184.00
2010,04,30,17,01,190.90
2010,04,30,17,02,190.90
2010,04,30,17,03,188.70
2010,04,30,17,04,188.00
2010,04,30,17,05,188.00
2010,04,30,17,06,188.00
2010,04,30,17,07,188.00
2010,04,30,17,08,188.60
2010,04,30,17,09,188.10
2010,04,30,17,10,180.70